000000,18.5985, 27 Oct 2015, 00:00:34
000030,18.6006, 27 Oct 2015, 00:01:05
000100,18.6046, 27 Oct 2015, 00:01:35
000130,18.6216, 27 Oct 2015, 00:02:04
000200,18.6514, 27 Oct 2015, 00:02:34
000230,18.6823, 27 Oct 2015, 00:03:04
000300,18.7132, 27 Oct 2015, 00:03:35
000330,18.7461, 27 Oct 2015, 00:04:04
000400,18.7828, 27 Oct 2015, 00:04:34
000430,18.8197, 27 Oct 2015, 00:05:04
000500,18.8562, 27 Oct 2015, 00:05:35
000530,18.8907, 27 Oct 2015, 00:06:04
000600,18.9261, 27 Oct 2015, 00:06:34
000630,18.9629, 27 Oct 2015, 00:07:04
000700,18.9985, 27 Oct 2015, 00:07:34
000730,19.0291, 27 Oct 2015, 00:08:04
000800,19.0568, 27 Oct 2015, 00:08:34
000830,19.0793, 27 Oct 2015, 00:09:04
000900,19.0977, 27 Oct 2015, 00:09:34
000930,19.1137, 27 Oct 2015, 00:10:04
001000,19.1267, 27 Oct 2015, 00:10:34
001030,19.1382, 27 Oct 2015, 00:11:04
001100,19.1486, 27 Oct 2015, 00:11:34
001130,19.1567, 27 Oct 2015, 00:12:04
001200,19.1638, 27 Oct 2015, 00:12:35
001230,19.1689, 27 Oct 2015, 00:13:04
001300,19.1728, 27 Oct 2015, 00:13:34
001330,19.1764, 27 Oct 2015, 00:14:04
001430,19.1804, 27 Oct 2015, 00:15:04
001500,19.1818, 27 Oct 2015, 00:15:34
001530,19.1829, 27 Oct 2015, 00:16:04
001600,19.1838, 27 Oct 2015, 00:16:34
001630,19.1842, 27 Oct 2015, 00:17:03
001700,19.185, 27 Oct 2015, 00:17:34
001730,19.185, 27 Oct 2015, 00:18:04
001800,19.1847, 27 Oct 2015, 00:18:34
001830,19.1854, 27 Oct 2015, 00:19:04
001900,19.185, 27 Oct 2015, 00:19:34
001930,19.1843, 27 Oct 2015, 00:20:04
002000,19.1826, 27 Oct 2015, 00:20:34
002030,19.1821, 27 Oct 2015, 00:21:04
002100,19.1818, 27 Oct 2015, 00:21:33
002130,19.1812, 27 Oct 2015, 00:22:04
002200,19.1803, 27 Oct 2015, 00:22:34
002230,19.1786, 27 Oct 2015, 00:23:04
002300,19.1761, 27 Oct 2015, 00:23:34
002330,19.1742, 27 Oct 2015, 00:24:04
002400,19.1708, 27 Oct 2015, 00:24:35
002430,19.1671, 27 Oct 2015, 00:25:05
002500,19.1634, 27 Oct 2015, 00:25:34
002530,19.159, 27 Oct 2015, 00:26:04
002600,19.1554, 27 Oct 2015, 00:26:35
002630,19.1522, 27 Oct 2015, 00:27:05
002730,19.1475, 27 Oct 2015, 00:28:04
002800,19.1447, 27 Oct 2015, 00:28:35
002830,19.1417, 27 Oct 2015, 00:29:05
002900,19.14, 27 Oct 2015, 00:29:35
002930,19.1378, 27 Oct 2015, 00:30:04
003000,19.1353, 27 Oct 2015, 00:30:34
003030,19.1338, 27 Oct 2015, 00:31:05
003100,19.1328, 27 Oct 2015, 00:31:35
003130,19.1316, 27 Oct 2015, 00:32:05
003200,19.1309, 27 Oct 2015, 00:32:34
003230,19.1299, 27 Oct 2015, 00:33:05
003300,19.1295, 27 Oct 2015, 00:33:35
003330,19.1288, 27 Oct 2015, 00:34:05
003400,19.1281, 27 Oct 2015, 00:34:34
003430,19.1278, 27 Oct 2015, 00:35:04
003500,19.1263, 27 Oct 2015, 00:35:35
003530,19.1248, 27 Oct 2015, 00:36:05
003600,19.1236, 27 Oct 2015, 00:36:34
003630,19.1233, 27 Oct 2015, 00:37:04
003700,19.1226, 27 Oct 2015, 00:37:34
003730,19.1212, 27 Oct 2015, 00:38:05
003830,19.1191, 27 Oct 2015, 00:39:04
003900,19.1181, 27 Oct 2015, 00:39:34
003930,19.1171, 27 Oct 2015, 00:40:05
004000,19.1172, 27 Oct 2015, 00:40:35
004030,19.1169, 27 Oct 2015, 00:41:04
004100,19.1177, 27 Oct 2015, 00:41:34
004130,19.1191, 27 Oct 2015, 00:42:04
004200,19.1202, 27 Oct 2015, 00:42:35
004230,19.122, 27 Oct 2015, 00:43:05
004300,19.1226, 27 Oct 2015, 00:43:34
004330,19.1232, 27 Oct 2015, 00:44:04
004400,19.1238, 27 Oct 2015, 00:44:34
004430,19.1255, 27 Oct 2015, 00:45:04
004500,19.1258, 27 Oct 2015, 00:45:34
004530,19.1271, 27 Oct 2015, 00:46:04
004600,19.1276, 27 Oct 2015, 00:46:34
004630,19.1291, 27 Oct 2015, 00:47:05
004700,19.131, 27 Oct 2015, 00:47:34
004730,19.1324, 27 Oct 2015, 00:48:04
004800,19.1341, 27 Oct 2015, 00:48:34
004830,19.1372, 27 Oct 2015, 00:49:04
004900,19.1407, 27 Oct 2015, 00:49:34
004930,19.1431, 27 Oct 2015, 00:50:04
005000,19.1457, 27 Oct 2015, 00:50:34
005030,19.1479, 27 Oct 2015, 00:51:04
005100,19.1497, 27 Oct 2015, 00:51:35
005130,19.1512, 27 Oct 2015, 00:52:04
005200,19.153, 27 Oct 2015, 00:52:34
005230,19.1546, 27 Oct 2015, 00:53:04
005300,19.1558, 27 Oct 2015, 00:53:34
005330,19.1572, 27 Oct 2015, 00:54:04
005400,19.1586, 27 Oct 2015, 00:54:34
005430,19.1593, 27 Oct 2015, 00:55:04
005500,19.1595, 27 Oct 2015, 00:55:34
005530,19.1592, 27 Oct 2015, 00:56:04
005600,19.1591, 27 Oct 2015, 00:56:34
005630,19.1581, 27 Oct 2015, 00:57:04
005700,19.1568, 27 Oct 2015, 00:57:34
005730,19.1556, 27 Oct 2015, 00:58:03
005800,19.1543, 27 Oct 2015, 00:58:34
005830,19.1523, 27 Oct 2015, 00:59:04
005900,19.1507, 27 Oct 2015, 00:59:34
005930,19.1479, 27 Oct 2015, 01:00:04
010000,19.1447, 27 Oct 2015, 01:00:34
010030,19.1408, 27 Oct 2015, 01:01:04
010100,19.1363, 27 Oct 2015, 01:01:34
010130,19.1307, 27 Oct 2015, 01:02:04
010200,19.1252, 27 Oct 2015, 01:02:34
010230,19.1199, 27 Oct 2015, 01:03:04
010300,19.1138, 27 Oct 2015, 01:03:34
010330,19.1076, 27 Oct 2015, 01:04:04
010400,19.1016, 27 Oct 2015, 01:04:34
010430,19.0962, 27 Oct 2015, 01:05:04
010500,19.0909, 27 Oct 2015, 01:05:35
010530,19.0855, 27 Oct 2015, 01:06:05
010600,19.0802, 27 Oct 2015, 01:06:35
010630,19.0733, 27 Oct 2015, 01:07:04
010700,19.0675, 27 Oct 2015, 01:07:34
010730,19.0602, 27 Oct 2015, 01:08:05
010800,19.0531, 27 Oct 2015, 01:08:35
010830,19.0444, 27 Oct 2015, 01:09:05
010900,19.0424, 27 Oct 2015, 01:09:34
010930,19.0541, 27 Oct 2015, 01:10:04
011000,19.0751, 27 Oct 2015, 01:10:35
011030,19.1002, 27 Oct 2015, 01:11:05
011100,19.125, 27 Oct 2015, 01:11:35
011130,19.1488, 27 Oct 2015, 01:12:04
011200,19.1705, 27 Oct 2015, 01:12:34
011230,19.1881, 27 Oct 2015, 01:13:05
011300,19.2025, 27 Oct 2015, 01:13:35
011330,19.214, 27 Oct 2015, 01:14:05
011400,19.2233, 27 Oct 2015, 01:14:34
011430,19.2307, 27 Oct 2015, 01:15:05
011500,19.2368, 27 Oct 2015, 01:15:35
011530,19.2421, 27 Oct 2015, 01:16:04
011600,19.2468, 27 Oct 2015, 01:16:34
011630,19.2513, 27 Oct 2015, 01:17:04
011700,19.2555, 27 Oct 2015, 01:17:35
011730,19.2594, 27 Oct 2015, 01:18:05
011800,19.262, 27 Oct 2015, 01:18:34
011830,19.264, 27 Oct 2015, 01:19:04
011900,19.2647, 27 Oct 2015, 01:19:35
011930,19.266, 27 Oct 2015, 01:20:05
012000,19.269, 27 Oct 2015, 01:20:34
012030,19.2724, 27 Oct 2015, 01:21:04
012100,19.2762, 27 Oct 2015, 01:21:34
012130,19.2847, 27 Oct 2015, 01:22:05
012200,19.3, 27 Oct 2015, 01:22:34
012230,19.3232, 27 Oct 2015, 01:23:04
012300,19.3484, 27 Oct 2015, 01:23:34
012330,19.3725, 27 Oct 2015, 01:24:05
012400,19.3941, 27 Oct 2015, 01:24:34
012430,19.4138, 27 Oct 2015, 01:25:04
012500,19.4318, 27 Oct 2015, 01:25:34
012530,19.4485, 27 Oct 2015, 01:26:05
012600,19.4623, 27 Oct 2015, 01:26:34
012630,19.4754, 27 Oct 2015, 01:27:04
012700,19.4863, 27 Oct 2015, 01:27:34
012730,19.4963, 27 Oct 2015, 01:28:04
012800,19.5042, 27 Oct 2015, 01:28:34
012830,19.5126, 27 Oct 2015, 01:29:04
012900,19.5193, 27 Oct 2015, 01:29:34
012930,19.524, 27 Oct 2015, 01:30:04
013030,19.5283, 27 Oct 2015, 01:31:04
013100,19.5285, 27 Oct 2015, 01:31:34
013130,19.5295, 27 Oct 2015, 01:32:04
013200,19.5335, 27 Oct 2015, 01:32:35
013230,19.539, 27 Oct 2015, 01:33:04
013300,19.5469, 27 Oct 2015, 01:33:34
013330,19.5536, 27 Oct 2015, 01:34:04
013400,19.5584, 27 Oct 2015, 01:34:34
013430,19.5625, 27 Oct 2015, 01:35:04
013500,19.5637, 27 Oct 2015, 01:35:34
013530,19.5633, 27 Oct 2015, 01:36:04
013600,19.5624, 27 Oct 2015, 01:36:34
013630,19.5608, 27 Oct 2015, 01:37:04
013700,19.5586, 27 Oct 2015, 01:37:34
013730,19.5558, 27 Oct 2015, 01:38:04
013800,19.5535, 27 Oct 2015, 01:38:33
013830,19.551, 27 Oct 2015, 01:39:04
013900,19.5482, 27 Oct 2015, 01:39:34
013930,19.5475, 27 Oct 2015, 01:40:04
014000,19.5465, 27 Oct 2015, 01:40:33
014030,19.5463, 27 Oct 2015, 01:41:04
014100,19.5472, 27 Oct 2015, 01:41:34
014130,19.5474, 27 Oct 2015, 01:42:04
014230,19.5478, 27 Oct 2015, 01:43:04
014300,19.5479, 27 Oct 2015, 01:43:34
014330,19.5474, 27 Oct 2015, 01:44:04
014400,19.5479, 27 Oct 2015, 01:44:34
014430,19.5468, 27 Oct 2015, 01:45:05
014500,19.5463, 27 Oct 2015, 01:45:35
014530,19.5442, 27 Oct 2015, 01:46:05
014600,19.5424, 27 Oct 2015, 01:46:34
014630,19.5399, 27 Oct 2015, 01:47:05
014700,19.5363, 27 Oct 2015, 01:47:35
014730,19.5323, 27 Oct 2015, 01:48:05
014800,19.5291, 27 Oct 2015, 01:48:34
014830,19.5261, 27 Oct 2015, 01:49:05
014900,19.5231, 27 Oct 2015, 01:49:35
014930,19.5202, 27 Oct 2015, 01:50:05
015000,19.5174, 27 Oct 2015, 01:50:34
015030,19.5164, 27 Oct 2015, 01:51:05
015100,19.5172, 27 Oct 2015, 01:51:35
015130,19.5223, 27 Oct 2015, 01:52:05
015200,19.5298, 27 Oct 2015, 01:52:34
015230,19.5376, 27 Oct 2015, 01:53:05
015300,19.5441, 27 Oct 2015, 01:53:35
015330,19.5484, 27 Oct 2015, 01:54:05
015400,19.5512, 27 Oct 2015, 01:54:34
015430,19.5535, 27 Oct 2015, 01:55:04
015500,19.5539, 27 Oct 2015, 01:55:35
015600,19.5505, 27 Oct 2015, 01:56:34
015630,19.5458, 27 Oct 2015, 01:57:04
015700,19.5413, 27 Oct 2015, 01:57:35
015800,19.5308, 27 Oct 2015, 01:58:34
015830,19.5257, 27 Oct 2015, 01:59:04
015900,19.521, 27 Oct 2015, 01:59:35
015930,19.5169, 27 Oct 2015, 02:00:05
020000,19.5127, 27 Oct 2015, 02:00:34
020030,19.5074, 27 Oct 2015, 02:01:04
020100,19.5011, 27 Oct 2015, 02:01:35
020130,19.494, 27 Oct 2015, 02:02:05
020200,19.4867, 27 Oct 2015, 02:02:34
020230,19.4792, 27 Oct 2015, 02:03:04
020300,19.4718, 27 Oct 2015, 02:03:34
020330,19.4667, 27 Oct 2015, 02:04:05
020400,19.4634, 27 Oct 2015, 02:04:34
020430,19.4629, 27 Oct 2015, 02:05:04
020500,19.4648, 27 Oct 2015, 02:05:34
020530,19.4691, 27 Oct 2015, 02:06:05
020600,19.4749, 27 Oct 2015, 02:06:34
020630,19.4817, 27 Oct 2015, 02:07:04
020700,19.4864, 27 Oct 2015, 02:07:34
020730,19.4884, 27 Oct 2015, 02:08:04
020800,19.4896, 27 Oct 2015, 02:08:35
020830,19.4893, 27 Oct 2015, 02:09:04
020900,19.487, 27 Oct 2015, 02:09:34
020930,19.4822, 27 Oct 2015, 02:10:04
021000,19.4758, 27 Oct 2015, 02:10:35
021030,19.4674, 27 Oct 2015, 02:11:04
021100,19.4581, 27 Oct 2015, 02:11:34
021130,19.4487, 27 Oct 2015, 02:12:04
021200,19.4387, 27 Oct 2015, 02:12:35
021230,19.4297, 27 Oct 2015, 02:13:04
021300,19.4206, 27 Oct 2015, 02:13:34
021330,19.41, 27 Oct 2015, 02:14:04
021400,19.3988, 27 Oct 2015, 02:14:34
021430,19.3848, 27 Oct 2015, 02:15:04
021500,19.3736, 27 Oct 2015, 02:15:34
021530,19.3695, 27 Oct 2015, 02:16:04
021600,19.373, 27 Oct 2015, 02:16:34
021630,19.383, 27 Oct 2015, 02:17:04
021700,19.3963, 27 Oct 2015, 02:17:34
021730,19.4106, 27 Oct 2015, 02:18:04
021800,19.4235, 27 Oct 2015, 02:18:34
021830,19.4351, 27 Oct 2015, 02:19:03
021900,19.4444, 27 Oct 2015, 02:19:34
021930,19.4518, 27 Oct 2015, 02:20:04
022000,19.4572, 27 Oct 2015, 02:20:34
022030,19.4599, 27 Oct 2015, 02:21:04
022100,19.462, 27 Oct 2015, 02:21:34
022130,19.4619, 27 Oct 2015, 02:22:04
022200,19.4608, 27 Oct 2015, 02:22:34
022230,19.4598, 27 Oct 2015, 02:23:04
022300,19.458, 27 Oct 2015, 02:23:34
022330,19.4568, 27 Oct 2015, 02:24:04
022400,19.4573, 27 Oct 2015, 02:24:34
022430,19.459, 27 Oct 2015, 02:25:04
022500,19.4621, 27 Oct 2015, 02:25:35
022530,19.4639, 27 Oct 2015, 02:26:05
022600,19.4667, 27 Oct 2015, 02:26:35
022630,19.4684, 27 Oct 2015, 02:27:04
022700,19.47, 27 Oct 2015, 02:27:35
022730,19.4708, 27 Oct 2015, 02:28:05
022800,19.4729, 27 Oct 2015, 02:28:35
022830,19.473, 27 Oct 2015, 02:29:04
022900,19.4722, 27 Oct 2015, 02:29:35
022930,19.4714, 27 Oct 2015, 02:30:05
023000,19.4715, 27 Oct 2015, 02:30:35
023100,19.4707, 27 Oct 2015, 02:31:34
023130,19.4701, 27 Oct 2015, 02:32:05
023200,19.472, 27 Oct 2015, 02:32:35
023300,19.4812, 27 Oct 2015, 02:33:34
023330,19.4882, 27 Oct 2015, 02:34:05
023400,19.4963, 27 Oct 2015, 02:34:35
023430,19.5062, 27 Oct 2015, 02:35:04
023500,19.5179, 27 Oct 2015, 02:35:34
023530,19.5316, 27 Oct 2015, 02:36:05
023600,19.5457, 27 Oct 2015, 02:36:35
023630,19.5601, 27 Oct 2015, 02:37:04
023700,19.5742, 27 Oct 2015, 02:37:34
023730,19.5885, 27 Oct 2015, 02:38:05
023800,19.6021, 27 Oct 2015, 02:38:35
023830,19.6145, 27 Oct 2015, 02:39:04
023900,19.6243, 27 Oct 2015, 02:39:34
023930,19.6336, 27 Oct 2015, 02:40:05
024000,19.6404, 27 Oct 2015, 02:40:35
024030,19.65, 27 Oct 2015, 02:41:04
024100,19.6604, 27 Oct 2015, 02:41:34
024130,19.6695, 27 Oct 2015, 02:42:05
024200,19.6743, 27 Oct 2015, 02:42:35
024230,19.6772, 27 Oct 2015, 02:43:04
024300,19.6768, 27 Oct 2015, 02:43:34
024330,19.6728, 27 Oct 2015, 02:44:05
024400,19.6669, 27 Oct 2015, 02:44:35
024430,19.6584, 27 Oct 2015, 02:45:04
024500,19.6473, 27 Oct 2015, 02:45:34
024530,19.6354, 27 Oct 2015, 02:46:04
024630,19.6099, 27 Oct 2015, 02:47:04
024700,19.5935, 27 Oct 2015, 02:47:34
024730,19.5756, 27 Oct 2015, 02:48:04
024800,19.5558, 27 Oct 2015, 02:48:35
024830,19.5363, 27 Oct 2015, 02:49:04
024900,19.5141, 27 Oct 2015, 02:49:34
024930,19.4907, 27 Oct 2015, 02:50:04
025000,19.4724, 27 Oct 2015, 02:50:35
025030,19.4579, 27 Oct 2015, 02:51:04
025100,19.4457, 27 Oct 2015, 02:51:34
025130,19.4343, 27 Oct 2015, 02:52:04
025200,19.4228, 27 Oct 2015, 02:52:35
025230,19.4135, 27 Oct 2015, 02:53:04
025300,19.406, 27 Oct 2015, 02:53:34
025330,19.3992, 27 Oct 2015, 02:54:04
025400,19.393, 27 Oct 2015, 02:54:35
025430,19.3869, 27 Oct 2015, 02:55:04
025500,19.3822, 27 Oct 2015, 02:55:34
025530,19.3777, 27 Oct 2015, 02:56:04
025600,19.3733, 27 Oct 2015, 02:56:34
025630,19.3664, 27 Oct 2015, 02:57:04
025700,19.3585, 27 Oct 2015, 02:57:34
025730,19.35, 27 Oct 2015, 02:58:04
025800,19.3412, 27 Oct 2015, 02:58:34
025830,19.3306, 27 Oct 2015, 02:59:04
025900,19.313, 27 Oct 2015, 02:59:34
025930,19.2843, 27 Oct 2015, 03:00:04
030000,19.2587, 27 Oct 2015, 03:00:34
030030,19.2368, 27 Oct 2015, 03:01:04
030100,19.218, 27 Oct 2015, 03:01:34
030130,19.2099, 27 Oct 2015, 03:02:04
030200,19.2102, 27 Oct 2015, 03:02:34
030230,19.1755, 27 Oct 2015, 03:03:04
030300,19.1164, 27 Oct 2015, 03:03:34
030330,19.069, 27 Oct 2015, 03:04:04
030400,19.023, 27 Oct 2015, 03:04:34
030500,18.9572, 27 Oct 2015, 03:05:34
030530,18.938, 27 Oct 2015, 03:06:05
030600,18.9225, 27 Oct 2015, 03:06:35
030630,18.9172, 27 Oct 2015, 03:07:05
030700,18.9257, 27 Oct 2015, 03:07:34
030730,18.9427, 27 Oct 2015, 03:08:05
030800,18.9745, 27 Oct 2015, 03:08:35
030830,19.0167, 27 Oct 2015, 03:09:05
030900,19.0651, 27 Oct 2015, 03:09:34
030930,19.1132, 27 Oct 2015, 03:10:04
031000,19.1472, 27 Oct 2015, 03:10:35
031030,19.1732, 27 Oct 2015, 03:11:05
031100,19.1949, 27 Oct 2015, 03:11:35
031130,19.2145, 27 Oct 2015, 03:12:04
031200,19.2351, 27 Oct 2015, 03:12:35
031230,19.2593, 27 Oct 2015, 03:13:05
031300,19.3029, 27 Oct 2015, 03:13:35
031330,19.3587, 27 Oct 2015, 03:14:04
031400,19.4204, 27 Oct 2015, 03:14:34
031430,19.476, 27 Oct 2015, 03:15:05
031500,19.5255, 27 Oct 2015, 03:15:35
031530,19.5672, 27 Oct 2015, 03:16:04
031600,19.6064, 27 Oct 2015, 03:16:34
031630,19.6402, 27 Oct 2015, 03:17:05
031700,19.6718, 27 Oct 2015, 03:17:35
031730,19.7001, 27 Oct 2015, 03:18:04
031800,19.7262, 27 Oct 2015, 03:18:34
031830,19.7486, 27 Oct 2015, 03:19:05
031900,19.7679, 27 Oct 2015, 03:19:35
031930,19.7847, 27 Oct 2015, 03:20:04
032000,19.7993, 27 Oct 2015, 03:20:34
032030,19.8109, 27 Oct 2015, 03:21:05
032100,19.8209, 27 Oct 2015, 03:21:35
032130,19.831, 27 Oct 2015, 03:22:04
032200,19.8413, 27 Oct 2015, 03:22:34
032230,19.8522, 27 Oct 2015, 03:23:05
032300,19.862, 27 Oct 2015, 03:23:35
032330,19.8714, 27 Oct 2015, 03:24:04
032400,19.8796, 27 Oct 2015, 03:24:34
032430,19.8879, 27 Oct 2015, 03:25:05
032530,19.8946, 27 Oct 2015, 03:26:04
032600,19.8947, 27 Oct 2015, 03:26:34
032630,19.8952, 27 Oct 2015, 03:27:05
032730,19.9019, 27 Oct 2015, 03:28:04
032800,19.9096, 27 Oct 2015, 03:28:34
032830,19.9184, 27 Oct 2015, 03:29:05
032900,19.9281, 27 Oct 2015, 03:29:35
032930,19.938, 27 Oct 2015, 03:30:04
033000,19.948, 27 Oct 2015, 03:30:34
033030,19.9553, 27 Oct 2015, 03:31:04
033100,19.9608, 27 Oct 2015, 03:31:35
033130,19.9644, 27 Oct 2015, 03:32:04
033200,19.9671, 27 Oct 2015, 03:32:34
033230,19.9681, 27 Oct 2015, 03:33:04
033300,19.9677, 27 Oct 2015, 03:33:35
033330,19.9669, 27 Oct 2015, 03:34:04
033400,19.9644, 27 Oct 2015, 03:34:34
033430,19.962, 27 Oct 2015, 03:35:04
033500,19.9593, 27 Oct 2015, 03:35:34
033530,19.9573, 27 Oct 2015, 03:36:04
033600,19.9557, 27 Oct 2015, 03:36:34
033630,19.9542, 27 Oct 2015, 03:37:04
033700,19.9521, 27 Oct 2015, 03:37:34
033730,19.9492, 27 Oct 2015, 03:38:04
033800,19.9462, 27 Oct 2015, 03:38:34
033830,19.9436, 27 Oct 2015, 03:39:04
033900,19.9415, 27 Oct 2015, 03:39:34
033930,19.939, 27 Oct 2015, 03:40:04
034000,19.9361, 27 Oct 2015, 03:40:34
034030,19.9352, 27 Oct 2015, 03:41:04
034100,19.9351, 27 Oct 2015, 03:41:34
034130,19.9352, 27 Oct 2015, 03:42:04
034200,19.9347, 27 Oct 2015, 03:42:34
034230,19.9337, 27 Oct 2015, 03:43:04
034300,19.9326, 27 Oct 2015, 03:43:34
034330,19.9336, 27 Oct 2015, 03:44:04
034400,19.9329, 27 Oct 2015, 03:44:34
034430,19.9314, 27 Oct 2015, 03:45:04
034500,19.9292, 27 Oct 2015, 03:45:35
034530,19.924, 27 Oct 2015, 03:46:05
034600,19.9163, 27 Oct 2015, 03:46:35
034630,19.9083, 27 Oct 2015, 03:47:04
034700,19.8997, 27 Oct 2015, 03:47:35
034730,19.8922, 27 Oct 2015, 03:48:05
034800,19.885, 27 Oct 2015, 03:48:35
034830,19.8788, 27 Oct 2015, 03:49:04
034900,19.8741, 27 Oct 2015, 03:49:35
034930,19.8726, 27 Oct 2015, 03:50:05
035000,19.8721, 27 Oct 2015, 03:50:35
035030,19.8727, 27 Oct 2015, 03:51:04
035100,19.873, 27 Oct 2015, 03:51:35
035130,19.8723, 27 Oct 2015, 03:52:05
035200,19.8684, 27 Oct 2015, 03:52:35
035230,19.8667, 27 Oct 2015, 03:53:04
035300,19.8669, 27 Oct 2015, 03:53:35
035330,19.869, 27 Oct 2015, 03:54:05
035400,19.8697, 27 Oct 2015, 03:54:35
035430,19.8681, 27 Oct 2015, 03:55:04
035500,19.8653, 27 Oct 2015, 03:55:35
035530,19.8604, 27 Oct 2015, 03:56:05
035600,19.8553, 27 Oct 2015, 03:56:34
035630,19.8505, 27 Oct 2015, 03:57:04
035700,19.8481, 27 Oct 2015, 03:57:35
035730,19.8466, 27 Oct 2015, 03:58:05
035800,19.8465, 27 Oct 2015, 03:58:34
035830,19.8469, 27 Oct 2015, 03:59:04
035900,19.8477, 27 Oct 2015, 03:59:35
035930,19.847, 27 Oct 2015, 04:00:05
040000,19.8445, 27 Oct 2015, 04:00:34
040030,19.838, 27 Oct 2015, 04:01:04
040100,19.829, 27 Oct 2015, 04:01:35
040130,19.8179, 27 Oct 2015, 04:02:05
040200,19.8084, 27 Oct 2015, 04:02:35
040230,19.8005, 27 Oct 2015, 04:03:04
040300,19.7926, 27 Oct 2015, 04:03:34
040330,19.7849, 27 Oct 2015, 04:04:05
040400,19.7782, 27 Oct 2015, 04:04:35
040430,19.7722, 27 Oct 2015, 04:05:04
040500,19.7672, 27 Oct 2015, 04:05:34
040530,19.767, 27 Oct 2015, 04:06:05
040630,19.7722, 27 Oct 2015, 04:07:04
040700,19.7764, 27 Oct 2015, 04:07:34
040730,19.7812, 27 Oct 2015, 04:08:05
040800,19.7867, 27 Oct 2015, 04:08:35
040830,19.7932, 27 Oct 2015, 04:09:04
040900,19.8035, 27 Oct 2015, 04:09:34
040930,19.8188, 27 Oct 2015, 04:10:04
041000,19.8364, 27 Oct 2015, 04:10:35
041030,19.8535, 27 Oct 2015, 04:11:04
041100,19.8697, 27 Oct 2015, 04:11:34
041130,19.8845, 27 Oct 2015, 04:12:04
041200,19.8967, 27 Oct 2015, 04:12:35
041230,19.907, 27 Oct 2015, 04:13:04
041300,19.9156, 27 Oct 2015, 04:13:34
041330,19.9212, 27 Oct 2015, 04:14:04
041400,19.9232, 27 Oct 2015, 04:14:35
041430,19.9159, 27 Oct 2015, 04:15:04
041500,19.9046, 27 Oct 2015, 04:15:34
041530,19.8955, 27 Oct 2015, 04:16:04
041630,19.8883, 27 Oct 2015, 04:17:04
041700,19.8879, 27 Oct 2015, 04:17:34
041730,19.8898, 27 Oct 2015, 04:18:04
041800,19.8927, 27 Oct 2015, 04:18:35
041830,19.897, 27 Oct 2015, 04:19:04
041900,19.9013, 27 Oct 2015, 04:19:34
041930,19.905, 27 Oct 2015, 04:20:04
042000,19.908, 27 Oct 2015, 04:20:35
042030,19.9106, 27 Oct 2015, 04:21:04
042100,19.9111, 27 Oct 2015, 04:21:34
042130,19.9101, 27 Oct 2015, 04:22:04
042200,19.9074, 27 Oct 2015, 04:22:34
042230,19.9033, 27 Oct 2015, 04:23:04
042300,19.8981, 27 Oct 2015, 04:23:34
042330,19.893, 27 Oct 2015, 04:24:04
042400,19.8877, 27 Oct 2015, 04:24:34
042430,19.8842, 27 Oct 2015, 04:25:04
042500,19.8816, 27 Oct 2015, 04:25:34
042530,19.8784, 27 Oct 2015, 04:26:04
042600,19.8742, 27 Oct 2015, 04:26:33
042630,19.8689, 27 Oct 2015, 04:27:04
042700,19.8636, 27 Oct 2015, 04:27:34
042730,19.8583, 27 Oct 2015, 04:28:04
042800,19.852, 27 Oct 2015, 04:28:33
042830,19.8449, 27 Oct 2015, 04:29:04
042900,19.8364, 27 Oct 2015, 04:29:34
042930,19.8278, 27 Oct 2015, 04:30:04
043000,19.8201, 27 Oct 2015, 04:30:33
043030,19.8135, 27 Oct 2015, 04:31:04
043100,19.8074, 27 Oct 2015, 04:31:34
043130,19.8024, 27 Oct 2015, 04:32:04
043200,19.7985, 27 Oct 2015, 04:32:33
043230,19.7976, 27 Oct 2015, 04:33:04
043300,19.7998, 27 Oct 2015, 04:33:34
043330,19.8038, 27 Oct 2015, 04:34:04
043400,19.8075, 27 Oct 2015, 04:34:33
043430,19.8114, 27 Oct 2015, 04:35:05
043500,19.8145, 27 Oct 2015, 04:35:35
043530,19.8188, 27 Oct 2015, 04:36:04
043600,19.8229, 27 Oct 2015, 04:36:34
043630,19.8277, 27 Oct 2015, 04:37:05
043700,19.8329, 27 Oct 2015, 04:37:35
043730,19.8362, 27 Oct 2015, 04:38:04
043800,19.8374, 27 Oct 2015, 04:38:34
043830,19.8374, 27 Oct 2015, 04:39:05
043900,19.8367, 27 Oct 2015, 04:39:35
043930,19.8347, 27 Oct 2015, 04:40:04
044000,19.8307, 27 Oct 2015, 04:40:34
044030,19.8264, 27 Oct 2015, 04:41:05
044100,19.8206, 27 Oct 2015, 04:41:35
044200,19.8043, 27 Oct 2015, 04:42:34
044230,19.7948, 27 Oct 2015, 04:43:05
044300,19.7824, 27 Oct 2015, 04:43:35
044400,19.7575, 27 Oct 2015, 04:44:34
044430,19.7457, 27 Oct 2015, 04:45:05
044500,19.7357, 27 Oct 2015, 04:45:35
044530,19.7278, 27 Oct 2015, 04:46:04
044600,19.7224, 27 Oct 2015, 04:46:34
044630,19.7189, 27 Oct 2015, 04:47:05
044700,19.7159, 27 Oct 2015, 04:47:35
044730,19.7146, 27 Oct 2015, 04:48:04
044800,19.713, 27 Oct 2015, 04:48:34
044830,19.7118, 27 Oct 2015, 04:49:05
044900,19.7106, 27 Oct 2015, 04:49:35
044930,19.7096, 27 Oct 2015, 04:50:04
045000,19.7091, 27 Oct 2015, 04:50:34
045030,19.7095, 27 Oct 2015, 04:51:05
045100,19.7084, 27 Oct 2015, 04:51:35
045130,19.7073, 27 Oct 2015, 04:52:04
045200,19.7062, 27 Oct 2015, 04:52:34
045230,19.7048, 27 Oct 2015, 04:53:05
045300,19.7039, 27 Oct 2015, 04:53:35
045330,19.704, 27 Oct 2015, 04:54:04
045400,19.7046, 27 Oct 2015, 04:54:34
045430,19.7071, 27 Oct 2015, 04:55:05
045500,19.7105, 27 Oct 2015, 04:55:34
045530,19.7137, 27 Oct 2015, 04:56:04
045600,19.7169, 27 Oct 2015, 04:56:34
045630,19.7193, 27 Oct 2015, 04:57:04
045700,19.7221, 27 Oct 2015, 04:57:34
045730,19.7261, 27 Oct 2015, 04:58:04
045800,19.7304, 27 Oct 2015, 04:58:34
045830,19.7359, 27 Oct 2015, 04:59:04
045900,19.7392, 27 Oct 2015, 04:59:34
045930,19.743, 27 Oct 2015, 05:00:04
050000,19.7459, 27 Oct 2015, 05:00:34
050030,19.7488, 27 Oct 2015, 05:01:04
050130,19.7553, 27 Oct 2015, 05:02:04
050200,19.7575, 27 Oct 2015, 05:02:34
050230,19.7584, 27 Oct 2015, 05:03:04
050300,19.7593, 27 Oct 2015, 05:03:35
050330,19.7596, 27 Oct 2015, 05:04:04
050400,19.7605, 27 Oct 2015, 05:04:34
050430,19.7631, 27 Oct 2015, 05:05:04
050500,19.7675, 27 Oct 2015, 05:05:33
050530,19.7723, 27 Oct 2015, 05:06:04
050600,19.7771, 27 Oct 2015, 05:06:34
050630,19.7829, 27 Oct 2015, 05:07:04
050730,19.7943, 27 Oct 2015, 05:08:04
050800,19.7987, 27 Oct 2015, 05:08:34
050830,19.8015, 27 Oct 2015, 05:09:04
050900,19.8018, 27 Oct 2015, 05:09:34
050930,19.8019, 27 Oct 2015, 05:10:03
051000,19.7994, 27 Oct 2015, 05:10:34
051030,19.7928, 27 Oct 2015, 05:11:04
051100,19.7823, 27 Oct 2015, 05:11:34
051130,19.766, 27 Oct 2015, 05:12:03
051200,19.7459, 27 Oct 2015, 05:12:34
051230,19.7248, 27 Oct 2015, 05:13:04
051300,19.704, 27 Oct 2015, 05:13:34
051330,19.6853, 27 Oct 2015, 05:14:03
051400,19.6668, 27 Oct 2015, 05:14:34
051430,19.6455, 27 Oct 2015, 05:15:05
051500,19.6255, 27 Oct 2015, 05:15:34
051530,19.6031, 27 Oct 2015, 05:16:04
051600,19.5797, 27 Oct 2015, 05:16:35
051630,19.5583, 27 Oct 2015, 05:17:05
051730,19.5203, 27 Oct 2015, 05:18:04
051800,19.4984, 27 Oct 2015, 05:18:35